Regional Weather Roundup
Issued by NWS

Home | Current Version | Previous Version | Text Only | Print | Product List | Glossary On
Versions: 1 2 3 4 5 6 7 8 9 10 11 12 13 14 15 16 17 18 19 20 21 22 23 24 25 26 27
000
ASUS42 KFFC 201103
RWRGA
WEATHER ROUNDUP FOR GEORGIA
NATIONAL WEATHER SERVICE PEACHTREE CITY GA
700 AM EDT SUN APR 20 2014

NOTE: "FAIR" INDICATES FEW OR NO CLOUDS BELOW 12,000 FEET WITH NO
SIGNIFICANT WEATHER AND/OR OBSTRUCTIONS TO VISIBILITY.

* = USE WITH CAUTION. THE STATIONS MARKED WITH AN ASTERISK MAY NOT
REPORT WEATHER SUCH AS PRECIPITATION, FOG, OR THUNDER AND ARE NOT
QUALITY CONTROLLED BY NWS.

THE REMARK "TC" DENOTES TEMPERATURE READING IN DEGREES CELSIUS.

GAZ001>058-201200-
NORTH GEORGIA

CITY           SKY/WX    TMP DP  RH WIND       PRES   REMARKS
ATLANTA        PTCLDY    51  43  74 NE13      30.18S
ATHENS         CLOUDY    50  44  80 NE3       30.19R
CHAMBLEE       CLEAR     47  41  80 N3        30.20R
PEACHTREE CITY CLOUDY    53  43  68 CALM      30.20R
ROME           CLEAR     46  45  96 N3        30.21R
WEST ATLANTA   CLEAR     50  43  77 NE6       30.19R
GAINESVILLE    CLEAR     49  41  74 N5        30.22R
CARTERSVILLE   CLOUDY    47  45  93 CALM      30.22R


CITY           SKY/WX    TMP DP  RH WIND       PRES   REMARKS
DALTON*        CLEAR     45  45 100 CALM      30.22S
LAWRENCEVILLE* CLEAR     48  39  71 NE5       30.19
$$

GAZ059>098-102>109-201200-
CENTRAL GEORGIA

CITY           SKY/WX    TMP DP  RH WIND       PRES   REMARKS
AUGUSTA-BUSH   LGT RAIN  51  48  89 N8        30.17R FOG
AUGUSTA-DANIEL LGT RAIN  51  48  89 N9G18     30.17R
COLUMBUS       CLOUDY    54  46  74 E10       30.16R
MACON          CLOUDY    51  48  89 NE8       30.15R
ROBINS AFB     CLOUDY    52  48  87 N6        30.14R


CITY           SKY/WX    TMP DP  RH WIND       PRES   REMARKS
LAGRANGE*      CLOUDY    54  46  76 NE3       30.19R
SYLVANIA*      CLOUDY    53  50  90 NE10      30.12R
MILLEDGEVILLE* CLOUDY    54  43  66 E7        30.17S
$$

GAZ099>101-110>166-201200-
SOUTH GEORGIA

CITY           SKY/WX    TMP DP  RH WIND       PRES   REMARKS
SAVANNAH       CLOUDY    53  49  86 N10       30.08R
VALDOSTA       CLOUDY    57  51  80 N7        30.08S
ALMA           CLOUDY    53  50  89 N8        30.08R
ST SIMONS      LGT RAIN  54  53  97 N9        30.04R
FT STEWART     CLOUDY    52  52 100 N10       30.06R
ALBANY         CLOUDY    54  50  86 NE8G18    30.13R
MOODY AFB      CLOUDY    54  54 100 N8        30.08S
BRUNSWICK      CLOUDY    54  54 100 N7        30.06R


CITY           SKY/WX    TMP DP  RH WIND       PRES   REMARKS
BAINBRIDGE*    CLOUDY    59  55  88 NE6       30.11R
MOULTRIE*      CLOUDY    54  54 100 N5        30.10S
VIDALIA*       CLOUDY    52  50  93 NE9G17    30.11R
DOUGLAS*       CLOUDY    54  52  94 NE10      30.11R
$$



USA.gov is the U.S. government's official web portal to all federal, state and local government web resources and services.